Satellite-Ground Cal/Val Region Overpasses Predictions

Prediction of Satellite NPP Overpassing Cal/Val Region: PacNW

Region Location: (Latitude: 10.00, Longitude: 139.50) to (Latitude: 22.70, Longitude: 165.60).

Table of predicted overpasses for the next 14.0 days since TLE Epoch: 11/23/2015
Interval Starting Time Starting Location Ending Time Ending Location
1 11/23/2015 14:48:23 ( 22.64, 163.41) 11/23/2015 14:51:58 ( 10.02, 160.41)
2 11/24/2015 03:38:58 ( 10.06, 145.57) 11/24/2015 03:42:33 ( 22.68, 142.58)
3 11/24/2015 14:32:25 ( 11.86, 165.59) 11/24/2015 14:32:56 ( 10.04, 165.17)
4 11/24/2015 16:10:51 ( 22.65, 142.79) 11/24/2015 16:14:26 ( 10.03, 139.80)
5 11/25/2015 03:19:55 ( 10.04, 150.33) 11/25/2015 03:23:30 ( 22.67, 147.34)
6 11/25/2015 15:51:48 ( 22.67, 147.55) 11/25/2015 15:55:23 ( 10.05, 144.56)
7 11/26/2015 03:00:53 ( 10.03, 155.09) 11/26/2015 03:04:28 ( 22.65, 152.10)
8 11/26/2015 15:32:46 ( 22.68, 152.31) 11/26/2015 15:36:22 ( 10.01, 149.30)
9 11/27/2015 02:41:51 ( 10.01, 159.85) 11/27/2015 02:45:27 ( 22.70, 156.84)
10 11/27/2015 15:13:43 ( 22.70, 157.07) 11/27/2015 15:17:19 ( 10.02, 154.06)
11 11/28/2015 02:22:48 ( 10.00, 164.61) 11/28/2015 02:26:24 ( 22.68, 161.60)
12 11/28/2015 14:54:42 ( 22.65, 161.82) 11/28/2015 14:58:17 ( 10.03, 158.82)
13 11/29/2015 03:45:17 ( 10.05, 143.98) 11/29/2015 03:48:52 ( 22.68, 140.98)
14 11/29/2015 14:36:47 ( 18.68, 165.60) 11/29/2015 14:39:14 ( 10.05, 163.58)
15 11/29/2015 16:17:09 ( 22.66, 141.20) 11/29/2015 16:19:08 ( 15.68, 139.51)
16 11/30/2015 03:26:14 ( 10.04, 148.74) 11/30/2015 03:29:49 ( 22.67, 145.74)
17 11/30/2015 15:58:07 ( 22.67, 145.96) 11/30/2015 16:01:42 ( 10.05, 142.96)
18 12/01/2015 03:07:12 ( 10.03, 153.50) 12/01/2015 03:10:47 ( 22.66, 150.50)
19 12/01/2015 15:39:04 ( 22.68, 150.72) 12/01/2015 15:42:40 ( 10.01, 147.71)
20 12/02/2015 02:48:09 ( 10.02, 158.26) 12/02/2015 02:51:44 ( 22.65, 155.26)
21 12/02/2015 15:20:02 ( 22.70, 155.48) 12/02/2015 15:23:38 ( 10.02, 152.47)
22 12/03/2015 02:29:07 ( 10.01, 163.02) 12/03/2015 02:32:43 ( 22.69, 160.01)
23
